Theta_e
335 339 345 352 352 352 352 351 349 348 347 345 343 343 342 340 342 342 339 339 339 340 340 341 341 341 341 341 341 340 340 343
333 335 340 352 352 352 352 351 349 349 348 347 346 344 343 344 343 342 340 340 341 342 342 343 343 343 344 343 343 344 341 343
331 332 335 350 351 351 352 351 349 349 348 347 347 347 346 346 345 343 342 342 343 343 344 344 344 344 345 343 342 343 342 342
330 330 332 342 348 352 351 350 350 349 348 348 348 347 347 347 347 345 344 343 343 344 344 345 344 345 345 342 341 341 342 342
330 327 329 337 341 343 344 351 350 350 349 348 348 348 347 348 348 346 346 346 344 344 345 346 346 346 345 343 341 340 340 341
334 329 327 333 336 339 340 344 350 350 350 349 348 348 346 341 341 342 345 345 345 345 346 347 348 347 345 341 340 339 339 332
329 332 332 334 332 335 338 337 343 342 342 342 342 341 341 338 337 341 343 346 346 346 348 349 349 346 342 332 331 336 330 330
325 331 336 335 334 332 334 335 339 341 339 340 339 338 339 338 337 338 336 338 338 345 340 343 342 339 333 331 328 326 326 326
312 322 335 337 335 333 333 333 335 337 337 337 338 337 337 336 333 332 334 332 331 335 338 336 333 333 331 331 328 327 325 325
311 314 329 336 336 335 333 332 334 336 336 335 337 338 337 335 332 331 330 329 330 331 335 331 330 330 328 328 329 328 327 327
315 313 320 335 336 336 335 333 334 335 336 335 337 338 337 334 331 330 330 329 328 329 330 330 330 329 326 327 327 327 327 325
315 315 313 332 335 335 335 334 334 335 336 335 336 336 336 334 331 330 329 327 329 327 327 328 330 328 328 327 328 328 328 328
313 314 315 328 334 335 335 335 334 336 336 335 334 335 335 334 333 330 329 328 328 326 327 327 326 327 324 326 324 322 323 325
314 314 313 317 327 334 334 332 333 334 336 335 334 334 334 335 334 331 329 328 327 326 325 325 325 324 321 322 322 322 322 322
313 314 313 318 326 328 329 330 331 332 331 333 333 335 336 336 334 331 330 328 326 325 324 323 322 323 322 321 323 323 323 323
313 315 315 323 328 332 332 330 327 328 326 326 331 335 334 334 332 329 328 327 326 325 325 324 322 323 322 323 321 320 321 321
316 321 321 327 331 331 332 327 326 325 324 326 327 332 333 333 334 332 327 326 325 324 323 324 324 321 321 323 318 316 311 315
320 324 327 329 331 332 330 328 325 325 324 323 323 325 329 334 333 329 328 326 325 326 324 323 323 321 316 320 317 314 309 306
321 327 330 331 332 332 330 328 327 322 321 321 323 324 326 329 329 329 328 326 325 324 323 321 322 318 316 313 317 318 313 311
Wind_Speed
13 13 18 24 24 23 22 20 20 20 19 19 18 18 18 18 16 15 16 14 13 12 10 8 7 7 7 7 7 6 7 8
12 12 16 25 23 21 21 21 20 20 20 19 18 18 18 17 16 16 15 15 14 13 11 10 8 8 8 8 9 7 7 8
16 14 13 19 20 22 22 22 21 21 21 20 19 18 17 16 16 16 15 14 13 12 11 11 10 7 7 7 7 9 8 10
9 12 11 13 16 21 22 21 21 21 21 20 20 19 18 17 16 15 15 14 13 12 11 11 10 8 8 9 9 8 10 11
2 7 9 11 13 13 13 22 22 22 22 21 20 20 18 18 17 16 14 13 13 12 11 12 12 9 9 8 9 10 11 11
5 6 6 10 12 13 12 14 20 22 21 20 19 19 16 8 9 12 12 13 14 13 13 12 12 10 9 10 10 10 12 2
11 10 10 11 14 13 11 10 12 10 11 12 11 12 9 8 7 9 11 15 15 15 14 13 12 11 10 3 3 7 2 4
21 9 15 15 14 14 13 9 7 7 7 8 11 9 8 6 5 5 3 4 4 10 4 7 7 4 5 4 3 3 4 4
10 16 15 17 14 14 9 10 10 8 8 8 9 10 8 6 6 5 5 5 4 4 5 5 3 4 5 5 5 5 5 4
7 10 14 13 14 14 13 9 9 11 10 9 8 10 9 8 7 6 5 4 5 4 5 4 4 4 5 5 4 5 5 6
10 9 10 13 16 13 14 14 11 9 9 8 8 9 11 8 6 6 6 6 4 4 4 5 6 6 5 4 5 5 6 5
8 10 11 16 11 13 17 14 9 8 8 9 8 10 12 10 7 8 6 4 6 4 5 4 4 4 3 4 6 4 3 5
8 10 9 10 14 15 14 11 9 8 8 8 8 8 12 12 10 6 5 5 4 4 5 4 4 4 4 4 3 4 4 4
12 12 10 10 11 13 9 7 7 7 7 7 7 7 11 11 9 7 5 5 5 4 4 4 3 3 3 4 4 4 4 4
10 7 7 6 8 8 6 5 4 5 4 6 7 7 10 8 9 7 5 5 5 4 4 3 4 4 3 4 4 4 4 4
9 9 9 8 7 9 6 5 4 6 4 3 4 8 8 7 8 7 5 5 5 6 7 7 3 4 4 2 2 0 2 4
9 9 8 7 9 6 4 4 4 4 3 3 4 6 8 8 9 8 6 5 6 4 4 4 4 2 3 5 2 2 1 2
9 8 7 8 9 8 9 7 4 4 4 3 3 3 3 6 6 6 6 5 5 4 4 4 4 5 3 2 1 4 2 4
8 6 6 8 9 8 8 8 11 5 4 2 3 3 4 5 6 5 5 5 5 3 4 4 4 3 3 3 1 2 1 3
Wind_Direction
164 170 177 181 184 184 182 180 178 176 175 177 178 177 175 178 180 182 187 188 189 194 205 216 224 235 244 250 256 250 255 259
173 180 184 187 184 183 185 186 183 180 181 182 183 183 183 182 186 192 195 194 196 198 203 218 231 244 255 259 259 250 253 260
175 181 190 188 188 187 187 189 189 185 185 186 187 187 189 189 191 195 202 206 203 207 211 215 228 235 254 258 263 256 253 254
176 176 178 189 196 197 192 194 192 190 191 190 191 190 190 193 198 198 205 210 215 213 220 227 232 232 237 246 260 263 253 257
240 199 183 183 191 200 203 197 196 196 195 195 195 192 194 196 198 200 210 213 220 225 223 235 234 230 235 239 251 261 263 256
206 208 202 187 206 198 205 209 202 202 201 201 199 197 194 193 202 200 203 213 222 227 231 232 236 229 233 241 250 259 264 241
217 212 190 199 202 200 202 204 205 202 204 203 200 197 193 182 185 190 202 218 224 231 234 232 229 228 236 220 249 266 270 246
216 192 201 204 206 197 200 195 199 199 200 202 198 187 185 180 188 195 188 218 219 234 220 235 228 207 208 213 223 238 250 246
198 214 206 206 200 201 196 200 200 200 200 203 198 184 178 179 185 184 195 209 210 210 204 206 198 196 216 228 210 235 237 243
229 220 217 200 199 197 199 199 198 201 201 197 188 187 183 187 186 178 197 202 212 200 197 196 192 198 215 228 226 215 237 236
251 235 209 203 203 188 202 205 204 199 194 190 187 187 185 185 175 189 211 217 209 202 194 186 198 203 213 207 238 212 233 247
244 247 202 204 186 195 202 206 198 194 187 190 187 178 181 182 181 184 202 214 213 196 188 194 193 178 216 224 232 214 220 259
249 250 228 183 191 195 200 198 193 187 185 188 180 172 183 187 179 175 185 213 225 185 185 181 182 190 205 200 229 237 238 256
236 239 223 181 192 194 192 183 183 169 179 175 161 175 184 183 175 187 172 192 185 177 175 176 185 158 182 223 231 241 238 237
248 242 232 172 180 165 141 126 113 135 150 164 173 176 173 176 166 164 172 182 183 155 184 180 186 199 195 214 220 218 224 239
246 220 210 186 164 144 148 145 148 175 148 146 163 166 161 153 156 158 176 182 164 184 194 191 171 199 222 208 187 63 270 240
243 216 216 184 157 156 123 113 138 139 123 136 150 161 162 165 164 178 177 182 181 192 190 197 207 223 228 182 157 94 280 313
230 208 188 154 137 136 129 116 80 75 72 82 80 90 148 160 171 165 179 181 202 198 206 207 199 193 178 203 198 139 126 230
217 138 145 132 139 132 143 128 147 139 135 140 138 146 175 173 170 163 172 186 221 198 200 189 180 168 142 163 188 195 103 136